When you browse on this site, cookies collect data to enhance your experience and personalize the content and advertising you see.
Visit our Privacy Policy to learn more. By continuing to use the site, you agree to this use of cookies and data.
EN

Hourly Weather Hanoi

Today, 14 July, Tuesday

Time Temperature Precipitation Wind Pressure Humidity
00:00 +30°C° 0.4 mm 2 mps 754 mmHg 82%
01:00 +30°C° 0 mm 2 mps 754 mmHg 83%
02:00 +30°C° 0.4 mm 2 mps 754 mmHg 84%
03:00 +29°C° 0.4 mm 2 mps 754 mmHg 85%
04:00 +29°C° 0.4 mm 1 mps 753 mmHg 87%
05:00 +30°C° 0.1 mm 1 mps 754 mmHg 84%
06:00 +30°C° 0.1 mm 1 mps 754 mmHg 81%
07:00 +31°C° 0 mm 1 mps 754 mmHg 78%
08:00 +32°C° 0 mm 1 mps 754 mmHg 71%
09:00 +34°C° 0 mm 1 mps 755 mmHg 64%
10:00 +36°C° 0 mm 2 mps 755 mmHg 57%
11:00 +37°C° 0 mm 2 mps 754 mmHg 54%
12:00 +38°C° 0 mm 2 mps 753 mmHg 50%
13:00 +39°C° 0 mm 2 mps 753 mmHg 45%
14:00 +39°C° 0 mm 2 mps 752 mmHg 44%
15:00 +40°C° 0 mm 2 mps 752 mmHg 42%
16:00 +40°C° 0 mm 2 mps 751 mmHg 41%
17:00 +38°C° 0 mm 3 mps 751 mmHg 48%
18:00 +36°C° 0 mm 4 mps 751 mmHg 56%
19:00 +34°C° 0 mm 5 mps 751 mmHg 63%
20:00 +34°C° 0 mm 5 mps 752 mmHg 67%
21:00 +33°C° 0 mm 4 mps 753 mmHg 71%
22:00 +31°C° 0 mm 3 mps 753 mmHg 75%
23:00 +31°C° 0 mm 3 mps 753 mmHg 77%

Tomorrow, 15 July, Wednesday

Time Temperature Precipitation Wind Pressure Humidity
00:00 +31°C° 0 mm 2 mps 753 mmHg 79%
01:00 +30°C° 0 mm 2 mps 753 mmHg 81%
02:00 +30°C° 0 mm 2 mps 753 mmHg 82%
03:00 +30°C° 0 mm 2 mps 752 mmHg 83%
04:00 +30°C° 0 mm 2 mps 752 mmHg 85%
05:00 +30°C° 0 mm 2 mps 752 mmHg 82%
06:00 +31°C° 0 mm 2 mps 752 mmHg 80%
07:00 +31°C° 0 mm 2 mps 753 mmHg 78%
08:00 +34°C° 0 mm 2 mps 753 mmHg 71%
09:00 +35°C° 0 mm 3 mps 753 mmHg 63%
10:00 +37°C° 0 mm 3 mps 753 mmHg 56%
11:00 +38°C° 0.2 mm 3 mps 752 mmHg 53%
12:00 +39°C° 0.2 mm 3 mps 752 mmHg 50%
13:00 +40°C° 0.2 mm 4 mps 751 mmHg 47%
14:00 +40°C° 0 mm 4 mps 750 mmHg 48%
15:00 +40°C° 0 mm 4 mps 750 mmHg 49%
16:00 +40°C° 0 mm 5 mps 749 mmHg 49%
17:00 +37°C° 0 mm 5 mps 749 mmHg 56%
18:00 +35°C° 0 mm 5 mps 749 mmHg 62%
19:00 +34°C° 0 mm 5 mps 750 mmHg 68%
20:00 +33°C° 0 mm 4 mps 750 mmHg 72%
21:00 +33°C° 0 mm 4 mps 751 mmHg 75%
22:00 +32°C° 0 mm 4 mps 752 mmHg 78%
23:00 +32°C° 0.4 mm 4 mps 751 mmHg 79%

Day after tomorrow, 16 July, Thursday

Time Temperature Precipitation Wind Pressure Humidity
00:00 +32°C° 0.4 mm 4 mps 751 mmHg 80%
01:00 +31°C° 0.4 mm 3 mps 751 mmHg 81%
02:00 +30°C° 0.4 mm 3 mps 751 mmHg 82%
03:00 +30°C° 0.4 mm 3 mps 751 mmHg 83%
04:00 +30°C° 0.4 mm 2 mps 751 mmHg 84%
05:00 +30°C° 0.9 mm 2 mps 751 mmHg 83%
06:00 +31°C° 0.9 mm 2 mps 751 mmHg 82%
07:00 +31°C° 0.9 mm 2 mps 751 mmHg 81%
08:00 +34°C° 0 mm 2 mps 751 mmHg 73%
09:00 +36°C° 0 mm 2 mps 751 mmHg 65%
10:00 +37°C° 0 mm 2 mps 751 mmHg 57%
11:00 +38°C° 0 mm 3 mps 750 mmHg 52%
12:00 +40°C° 0 mm 3 mps 750 mmHg 47%
13:00 +42°C° 0 mm 3 mps 749 mmHg 42%
14:00 +42°C° 0 mm 4 mps 749 mmHg 42%
15:00 +41°C° 0 mm 5 mps 748 mmHg 43%
16:00 +41°C° 0 mm 5 mps 747 mmHg 44%
17:00 +39°C° 0 mm 5 mps 748 mmHg 51%
18:00 +36°C° 0 mm 5 mps 748 mmHg 58%
19:00 +34°C° 0 mm 5 mps 748 mmHg 65%
20:00 +34°C° 0 mm 5 mps 749 mmHg 68%
21:00 +33°C° 0 mm 4 mps 750 mmHg 71%
22:00 +33°C° 0 mm 4 mps 751 mmHg 74%
23:00 +33°C° 0.1 mm 4 mps 750 mmHg 75%

17 July, Friday

Time Temperature Precipitation Wind Pressure Humidity
00:00 +33°C° 0.1 mm 4 mps 750 mmHg 77%
01:00 +31°C° 0.1 mm 3 mps 750 mmHg 78%
02:00 +31°C° 0.1 mm 3 mps 750 mmHg 79%
03:00 +31°C° 0.1 mm 3 mps 749 mmHg 79%
04:00 +31°C° 0.1 mm 2 mps 749 mmHg 79%
05:00 +31°C° 0 mm 2 mps 750 mmHg 78%
06:00 +31°C° 0 mm 2 mps 750 mmHg 76%
07:00 +31°C° 0 mm 2 mps 750 mmHg 74%
08:00 +34°C° 0 mm 2 mps 750 mmHg 68%
09:00 +36°C° 0 mm 2 mps 750 mmHg 62%
10:00 +38°C° 0 mm 2 mps 751 mmHg 56%
11:00 +39°C° 0 mm 2 mps 750 mmHg 50%
12:00 +40°C° 0 mm 3 mps 750 mmHg 44%
13:00 +43°C° 0 mm 3 mps 749 mmHg 39%
14:00 +43°C° 0 mm 3 mps 748 mmHg 38%
15:00 +43°C° 0 mm 4 mps 748 mmHg 37%
16:00 +43°C° 0 mm 4 mps 747 mmHg 37%
17:00 +41°C° 0 mm 5 mps 747 mmHg 42%
18:00 +39°C° 0 mm 5 mps 748 mmHg 48%
19:00 +36°C° 0 mm 5 mps 748 mmHg 53%
20:00 +36°C° 0 mm 5 mps 749 mmHg 57%
21:00 +35°C° 0 mm 5 mps 749 mmHg 61%
22:00 +34°C° 0 mm 6 mps 750 mmHg 65%
23:00 +34°C° 0.1 mm 5 mps 750 mmHg 65%

18 July, Saturday

Time Temperature Precipitation Wind Pressure Humidity
00:00 +34°C° 0.1 mm 5 mps 749 mmHg 65%
01:00 +34°C° 0.1 mm 5 mps 749 mmHg 65%
02:00 +33°C° 0.1 mm 5 mps 749 mmHg 66%
03:00 +33°C° 0.1 mm 4 mps 749 mmHg 66%
04:00 +32°C° 0.1 mm 4 mps 749 mmHg 66%
05:00 +33°C° 0 mm 4 mps 749 mmHg 66%
06:00 +33°C° 0 mm 3 mps 750 mmHg 66%
07:00 +33°C° 0 mm 3 mps 750 mmHg 66%
08:00 +35°C° 0 mm 3 mps 750 mmHg 59%
09:00 +37°C° 0 mm 3 mps 750 mmHg 53%
10:00 +39°C° 0 mm 3 mps 750 mmHg 46%
11:00 +40°C° 0 mm 3 mps 749 mmHg 43%
12:00 +42°C° 0 mm 3 mps 749 mmHg 39%
13:00 +43°C° 0 mm 3 mps 748 mmHg 36%
14:00 +43°C° 0 mm 3 mps 747 mmHg 35%
15:00 +42°C° 0 mm 2 mps 747 mmHg 34%
16:00 +43°C° 0 mm 1 mps 746 mmHg 34%
17:00 +41°C° 0 mm 2 mps 747 mmHg 41%
18:00 +39°C° 0 mm 3 mps 747 mmHg 48%
19:00 +37°C° 0 mm 3 mps 747 mmHg 55%
20:00 +36°C° 0 mm 3 mps 748 mmHg 57%
21:00 +36°C° 0 mm 3 mps 749 mmHg 59%
22:00 +35°C° 0 mm 2 mps 749 mmHg 61%
23:00 +34°C° 0.4 mm 2 mps 749 mmHg 64%

19 July, Sunday

Time Temperature Precipitation Wind Pressure Humidity
00:00 +34°C° 0.4 mm 2 mps 749 mmHg 66%
01:00 +32°C° 0.4 mm 2 mps 749 mmHg 69%
02:00 +32°C° 0 mm 1 mps 749 mmHg 71%
03:00 +31°C° 0 mm 1 mps 748 mmHg 73%
04:00 +31°C° 0 mm 1 mps 748 mmHg 75%
05:00 +31°C° 0 mm 1 mps 749 mmHg 75%
06:00 +31°C° 0 mm 1 mps 749 mmHg 75%
07:00 +31°C° 0 mm 1 mps 749 mmHg 75%
08:00 +33°C° 0 mm 1 mps 749 mmHg 71%
09:00 +34°C° 0 mm 1 mps 749 mmHg 66%
10:00 +35°C° 0 mm 1 mps 750 mmHg 62%
11:00 +36°C° 0 mm 2 mps 749 mmHg 59%
12:00 +37°C° 0 mm 2 mps 749 mmHg 56%
13:00 +37°C° 0 mm 3 mps 748 mmHg 54%
14:00 +37°C° 0 mm 2 mps 748 mmHg 52%
15:00 +38°C° 0 mm 2 mps 747 mmHg 50%
16:00 +37°C° 0 mm 1 mps 747 mmHg 48%
17:00 +36°C° 0.1 mm 1 mps 747 mmHg 51%
18:00 +35°C° 0.1 mm 1 mps 748 mmHg 55%
19:00 +34°C° 0.1 mm 1 mps 748 mmHg 59%
20:00 +35°C° 0.4 mm 2 mps 749 mmHg 63%
21:00 +34°C° 0.4 mm 2 mps 749 mmHg 66%
22:00 +33°C° 0.4 mm 3 mps 750 mmHg 70%
23:00 +33°C° 0.2 mm 3 mps 750 mmHg 72%
Show more